This demonstration page uses our WeatherBlox Daily Observations layout. Learn more.

Left ArrowRight Arrow

Hourly Observations for September 27, 2018

Temp ( °F °C ) Dew Point ( °F °C ) Humidity (%) Winds ( mph kmh ) Pressure ( in mb ) Visibility ( mi km ) Precip ( " mm )
12:11 am 00:11 Cloudy 57 13.9 53 11.7 87 87 E 6 9 30.15 1021 10 16 0.00 0.00
12:29 am 00:29 Cloudy 57 13.9 54 12.2 90 90 E 7 11 30.15 1021 10 16 0.00 0.00
12:50 am 00:50 Cloudy 57 14 54 12 88 88 ESE 7 11 30.15 1021 10 16 0.00 0.00
12:53 am 00:53 Cloudy 56 13.3 54 12.2 93 93 ESE 7 11 30.14 1021 10 16 0.00 0.00
1:53 am 01:53 Cloudy 56 13.3 55 12.8 97 97 E 6 9 30.13 1020 7 11 0.00 0.00
2:53 am 02:53 Cloudy with Mist and Fog 56 13.3 54 12.2 93 93 E 7 11 30.13 1020 6 10 0.00 0.00
3:25 am 03:25 Cloudy 56 13.3 55 12.8 97 97 E 7 11 30.15 1021 10 16 0.00 0.00
3:49 am 03:49 Cloudy 55 13 54 12 94 94 ESE 7 11 30.15 1021 10 16 0.00 0.00
3:53 am 03:53 Cloudy 56 13.3 54 12.2 93 93 ESE 6 9 30.11 1020 10 16 0.00 0.00
4:04 am 04:04 Cloudy 56 13.3 54 12.2 93 93 SSE 6 9 30.15 1021 10 16 0.00 0.00
4:53 am 04:53 Cloudy 56 13.3 54 12.2 93 93 SSE 5 7 30.11 1020 10 16 0.00 0.00
5:08 am 05:08 Cloudy 56 13.3 54 12.2 93 93 S 5 7 30.15 1021 10 16 0.00 0.00
5:33 am 05:33 Cloudy 56 13.3 54 12.2 93 93 S 5 7 30.15 1021 10 16 0.00 0.00
5:53 am 05:53 Cloudy 56 13.3 54 12.2 93 93 S 6 9 30.10 1019 9 14 0.00 0.00
6:01 am 06:01 Cloudy 56 13.3 54 12.2 93 93 S 7 11 30.15 1021 10 16 0.00 0.00
6:53 am 06:53 Cloudy 56 13.3 54 12.2 93 93 SSE 5 7 30.10 1019 10 16 0.00 0.00
7:53 am 07:53 Cloudy 56 13.3 52 11.1 87 87 Calm 30.09 1019 10 16 0.00 0.00
8:53 am 08:53 Cloudy 57 13.9 53 11.7 87 87 S 3 6 30.10 1019 10 16 0.00 0.00
9:53 am 09:53 Cloudy 58 14.4 54 12.2 87 87 S 5 7 30.10 1019 10 16 0.00 0.00
10:53 am 10:53 Cloudy 60 15.6 55 12.8 84 84 W 5 7 30.09 1019 10 16 0.00 0.00
11:53 am 11:53 Cloudy 62 16.7 56 13.3 80 80 Calm 30.08 1019 10 16 0.00 0.00
12:51 pm 12:51 Cloudy 64 18 57 14 78 78 S 6 9 30.03 1017 10 16 0.00 0.00
12:53 pm 12:53 Cloudy 65 18.3 57 13.9 76 76 S 3 6 30.05 1018 10 16 0.00 0.00
1:34 pm 13:34 Partly Cloudy 68 20 58 14.4 70 70 SSE 8 13 30.03 1017 10 16 0.00 0.00
1:53 pm 13:53 Sunny 69 20.6 58 14.4 68 68 VRB 3 6 30.01 1016 10 16 0.00 0.00
2:53 pm 14:53 Sunny 73 22.8 59 15 62 62 S 5 7 29.96 1015 10 16 0.00 0.00
3:53 pm 15:53 Sunny 75 23.9 59 15 58 58 S 8 13 29.92 1013 10 16 0.00 0.00
4:53 pm 16:53 Sunny 77 25 59 15 54 54 SE 9 15 29.90 1012 10 16 0.00 0.00
5:53 pm 17:53 Sunny 77 25 60 15.6 56 56 SSE 13 20 29.87 1011 10 16 0.00 0.00
6:53 pm 18:53 Sunny 76 24.4 59 15 56 56 SE 10 17 29.87 1011 10 16 0.00 0.00
7:53 pm 19:53 Clear 71 21.7 60 15.6 68 68 SE 8 13 29.87 1012 10 16 0.00 0.00
8:53 pm 20:53 Clear 70 21.1 60 15.6 71 71 ESE 8 13 29.88 1012 10 16 0.00 0.00
9:53 pm 21:53 Clear 69 20.6 59 15 70 70 SE 12 19 29.89 1012 10 16 0.00 0.00
10:53 pm 22:53 Clear 67 19.4 60 15.6 79 79 SE 14 22 29.90 1013 10 16 0.00 0.00
11:53 pm 23:53 Clear 67 19.4 61 16.1 81 81 SE 12 19 29.89 1012 10 16 0.00 0.00

Powered by AerisWeather